Location: Fort Wayne
(41.1310°N, 85.1290°W)
Time: 04:46:58
(UTC-04:00)

ISS - Visible Passes

Search period start: 21 October 2014 00:00
Search period end: 31 October 2014 00:00
Orbit: 413 x 416 km, 51.6° (Epoch: 20 October)

Date Brightness Start Highest point End Pass type
(mag) Time Alt. Az. Time Alt. Az. Time Alt. Az.
21 Oct -2.0 20:29:26 10° NW 20:31:58 30° N 20:31:58 30° N visible
22 Oct -1.8 19:40:31 10° NW 19:43:17 23° NNE 19:45:00 16° ENE visible
22 Oct -0.4 21:16:55 10° WNW 21:17:52 18° WNW 21:17:52 18° WNW visible
23 Oct -3.3 20:27:49 10° NW 20:30:57 70° N 20:30:57 70° N visible
24 Oct -2.8 19:38:46 10° NW 19:41:59 44° NNE 19:44:08 18° E visible
24 Oct -0.3 21:15:50 10° W 21:17:01 17° W 21:17:01 17° W visible
25 Oct -2.1 20:26:19 10° WNW 20:29:28 39° SW 20:30:19 32° S visible
26 Oct -3.1 19:37:00 10° WNW 19:40:20 73° SW 19:43:39 10° SE visible
27 Oct -0.3 20:25:29 10° W 20:27:26 15° SW 20:29:22 10° SSW visible
28 Oct -1.0 19:35:31 10° WNW 19:38:20 26° SW 19:41:09 10° SSE visible
